Estación municipal de Cànoves i Samalús (Vallès Oriental, P.N.del Montseny)

Consulta los datos en tiempo real de la estación municipal de Cànoves i Samalús





Hora UTC 12:30
Temperatura 34.0 ºC
Humedad 48.6 %
Presión 1019.1 hPa
Pluja 0.0 mm
Velocidad viento 10.5 km/h
Dirección viento SSE
Radiación solar 749.7 W/m²

Webcam

Datos diarios 2026-09-04



Hora UTC (invierno +1h; verano +2h)
Temperatura (ºC) Humedad (%) Presión (hPa) Velocidad viento (km/h) Precipitación (mm) Radiación solar (W/m²)
Hora UTC Aire Humedad Presión Vel. Dir. Vel. Max Dir. Intent. máx 5 min. Rad. Sol.
00:05 20.6 85.9 1021.3 0.0 NNE 0.0 NNE 0.0 0.1
00:10 20.6 86.1 1021.2 0.5 SE 2.5 ESE 0.0 0.1
00:15 20.5 86.6 1021.2 0.0 NNE 0.0 ESE 0.0 0.1
00:20 20.5 87.3 1021.1 1.8 NNW 3.9 NNW 0.0 0.1
00:25 20.5 87.5 1021.0 1.3 NE 4.2 NNW 0.0 0.1
00:30 20.4 87.6 1021.1 2.3 SSE 5.3 SSE 0.0 0.1
00:35 20.3 88.2 1021.0 1.0 WNW 3.2 W 0.0 0.1
00:40 20.5 88.9 1021.0 3.3 NW 6.0 WNW 0.0 0.1
00:45 20.6 89.0 1020.9 2.3 NNW 6.0 WNW 0.0 0.1
00:50 20.5 88.1 1020.9 1.7 SE 6.4 WNW 0.0 0.1
00:55 20.3 88.1 1020.8 0.1 SE 1.8 SE 0.0 0.1
01:00 20.3 88.4 1020.7 2.3 NW 4.6 NW 0.0 0.1
01:05 20.3 88.4 1020.7 1.2 SSW 3.5 S 0.0 0.1
01:10 20.3 88.8 1020.6 0.9 SSW 3.9 WSW 0.0 0.1
01:15 20.3 88.5 1020.6 1.9 W 4.2 NW 0.0 0.1
01:20 20.2 87.9 1020.6 0.6 SSW 3.5 SW 0.0 0.1
01:25 20.2 87.8 1020.5 0.3 W 2.1 WNW 0.0 0.1
01:30 20.1 87.6 1020.5 0.6 WSW 3.9 S 0.0 0.1
01:35 20.1 87.5 1020.5 3.6 S 6.4 S 0.0 0.1
01:40 20.2 87.9 1020.5 1.9 SSW 5.3 S 0.0 0.1
01:45 20.2 88.0 1020.5 4.0 S 6.0 S 0.0 0.1
01:50 20.4 88.5 1020.4 1.8 N 4.6 NNE 0.0 0.1
01:55 20.4 87.9 1020.4 0.2 S 3.2 SSW 0.0 0.1
02:00 20.3 87.6 1020.3 1.0 SE 4.2 SE 0.0 0.1
02:05 20.3 87.7 1020.3 2.6 S 4.6 SSE 0.0 0.1
02:10 20.4 88.4 1020.3 3.1 SSE 7.4 SSE 0.0 0.1
02:15 20.6 88.3 1020.3 1.4 S 7.1 SSE 0.0 0.1
02:20 20.5 88.3 1020.3 1.7 S 3.2 SSE 0.0 0.1
02:25 20.5 88.4 1020.4 0.9 SE 4.6 SSE 0.0 0.1
02:30 20.5 87.6 1020.3 0.8 E 3.2 E 0.0 0.1
02:35 20.6 87.6 1020.3 1.0 NE 4.9 SSE 0.0 0.1
02:40 20.6 87.4 1020.2 1.6 SSE 5.6 SE 0.0 0.1
02:45 20.7 86.9 1020.2 1.8 S 3.9 SSE 0.0 0.1
02:50 20.7 86.7 1020.2 0.9 ESE 3.5 NE 0.0 0.1
02:55 20.7 86.8 1020.2 1.0 NE 3.5 NE 0.0 0.1
03:00 20.7 87.0 1020.1 1.3 NNE 4.6 NNE 0.0 0.1
03:05 20.6 86.6 1020.1 0.0 NNE 0.0 NNE 0.0 0.1
03:10 20.5 86.7 1020.1 0.7 NNW 3.9 NNW 0.0 0.1
03:15 20.4 87.0 1020.0 1.9 NNW 3.5 NNW 0.0 0.1
03:20 20.3 87.1 1020.0 2.3 NNW 4.9 NNW 0.0 0.1
03:25 20.1 87.1 1019.9 2.9 NW 5.6 NW 0.0 0.1
03:30 20.0 87.0 1019.8 0.1 NNW 1.4 NNW 0.0 0.1
03:35 19.8 86.5 1019.8 0.3 NW 3.9 WNW 0.0 0.1
03:40 19.8 86.1 1019.8 0.7 NNW 4.2 WNW 0.0 0.1
03:45 19.6 84.4 1019.7 0.7 W 2.8 WNW 0.0 0.1
03:50 19.6 83.9 1019.7 2.5 S 5.3 SSE 0.0 0.1
03:55 19.8 83.8 1019.6 1.1 S 2.8 S 0.0 0.1
04:00 19.8 83.5 1019.5 0.2 SSW 2.8 SSW 0.0 0.1
04:05 19.7 82.6 1019.5 1.8 SSW 4.9 S 0.0 0.1
04:10 19.6 81.6 1019.5 2.1 S 4.6 SSE 0.0 0.1
04:15 19.6 81.5 1019.5 0.1 S 1.8 SSE 0.0 0.1
04:20 19.7 81.2 1019.5 0.0 NNE 0.0 SSE 0.0 0.1
04:25 19.7 81.0 1019.5 0.1 ESE 1.8 ESE 0.0 0.1
04:30 19.7 80.8 1019.6 0.9 SE 2.5 SSE 0.0 0.1
04:35 19.7 80.5 1019.6 2.3 SW 4.6 W 0.0 0.1
04:40 19.9 81.4 1019.6 2.9 NNW 5.3 NNW 0.0 0.1
04:45 20.2 80.3 1019.5 2.5 NNW 4.2 NW 0.0 0.1
04:50 20.0 79.5 1019.5 0.7 NW 2.8 NW 0.0 0.1
04:55 19.9 79.1 1019.5 0.6 NNW 2.1 NNW 0.0 0.1
05:00 19.8 79.5 1019.5 2.9 NW 4.2 NNW 0.0 0.4
05:05 19.9 79.6 1019.5 3.8 NW 6.7 NNW 0.0 0.9
05:10 20.0 79.3 1019.4 3.7 NW 6.0 NW 0.0 1.7
05:15 20.2 78.7 1019.4 3.0 NW 6.4 NNW 0.0 3.0
05:20 20.4 78.2 1019.3 3.2 NW 4.6 NW 0.0 4.8
05:25 20.5 77.8 1019.3 2.5 NW 4.2 NW 0.0 7.0
05:30 20.5 77.5 1019.3 0.3 NNW 3.5 NNW 0.0 9.4
05:35 20.6 77.7 1019.3 0.2 NNE 3.2 NNW 0.0 12.0
05:40 20.6 77.8 1019.3 0.5 NNW 3.9 NNE 0.0 14.8
05:45 20.6 77.9 1019.4 1.6 SSW 3.5 SSW 0.0 17.9
05:50 20.7 77.8 1019.4 0.8 SSE 3.5 S 0.0 20.9
05:55 20.7 77.5 1019.5 0.9 S 2.1 S 0.0 23.6
06:00 20.7 77.9 1019.6 0.0 S 1.1 S 0.0 25.7
06:05 20.8 78.2 1019.6 0.0 NNE 0.0 S 0.0 27.6
06:10 21.0 78.0 1019.6 0.0 NNE 0.0 NNE 0.0 29.0
06:15 21.3 77.5 1019.6 1.9 NNW 7.8 NNW 0.0 30.4
06:20 21.6 75.5 1019.6 1.9 NNW 3.9 NW 0.0 31.9
06:25 21.9 74.0 1019.6 2.2 N 4.2 NNW 0.0 33.0
06:30 22.2 73.2 1019.6 1.8 NNW 3.9 NNW 0.0 34.1
06:35 22.3 72.1 1019.6 1.3 ESE 2.8 ESE 0.0 36.2
06:40 22.4 73.2 1019.7 1.6 SSE 3.5 SE 0.0 36.0
06:45 23.0 71.3 1019.7 2.5 SSE 4.2 SE 0.0 37.0
06:50 23.7 70.4 1019.7 2.5 S 4.6 S 0.0 38.1
06:55 24.2 69.6 1019.8 2.2 S 4.2 S 0.0 39.2
07:00 24.6 67.6 1019.8 2.2 S 3.5 SSE 0.0 40.3
07:05 25.0 66.0 1019.8 1.2 S 3.2 SSE 0.0 41.8
07:10 25.4 65.5 1019.8 3.4 SSE 5.3 S 0.0 42.2
07:15 25.6 65.8 1019.8 2.5 SSE 5.6 SE 0.0 52.8
07:20 25.9 65.1 1019.8 3.6 SE 7.1 ESE 0.0 55.9
07:25 26.1 65.1 1019.9 3.9 SE 7.8 E 0.0 58.4
07:30 26.3 64.9 1019.8 2.4 SSE 5.3 SSE 0.0 46.1
07:35 26.6 63.5 1019.8 3.2 S 6.0 S 0.0 55.3
07:40 26.9 62.3 1019.9 5.7 ESE 8.5 SE 0.0 92.1
07:45 27.3 61.9 1019.9 4.9 SE 8.1 SE 0.0 104.8
07:50 27.4 61.2 1019.9 5.3 SE 8.1 ESE 0.0 311.7
07:55 27.6 59.5 1019.9 5.1 ESE 7.4 ESE 0.0 402.2
08:00 27.8 59.1 1019.9 4.3 ESE 7.8 SE 0.0 416.7
08:05 28.1 58.6 1019.9 5.5 ESE 11.3 E 0.0 431.1
08:10 28.3 56.8 1019.9 6.9 ESE 10.6 ESE 0.0 445.8
08:15 28.4 55.7 1019.9 6.4 ESE 10.6 ESE 0.0 458.7
08:20 28.6 54.9 1020.0 6.1 E 10.6 E 0.0 472.0
08:25 29.0 54.7 1020.0 4.2 ESE 10.6 E 0.0 485.0
08:30 29.3 53.6 1020.0 6.8 ESE 10.6 ESE 0.0 477.8
08:35 29.3 53.7 1020.1 7.4 SE 11.6 SE 0.0 494.2
08:40 29.5 53.3 1020.1 6.7 ESE 10.2 ESE 0.0 524.2
08:45 30.0 51.8 1020.1 5.3 SE 8.5 SE 0.0 537.1
08:50 30.3 50.5 1020.1 4.6 E 10.9 SE 0.0 548.0
08:55 30.3 50.8 1020.2 7.1 ESE 10.6 ESE 0.0 560.0
09:00 30.6 49.6 1020.2 4.5 E 8.8 ENE 0.0 570.9
09:05 30.8 50.4 1020.2 5.2 SE 11.3 S 0.0 582.0
09:10 30.9 50.2 1020.2 7.1 SSE 12.7 ESE 0.0 592.7
09:15 30.9 50.2 1020.3 7.8 SE 13.1 ESE 0.0 602.6
09:20 30.9 50.1 1020.3 6.8 SE 9.5 SE 0.0 612.7
09:25 31.1 49.4 1020.3 4.4 SSE 10.6 SSE 0.0 622.7
09:30 31.3 48.8 1020.3 6.5 ESE 12.4 ESE 0.0 633.1
09:35 31.4 48.2 1020.2 4.7 SE 10.9 SE 0.0 643.4
09:40 31.7 47.7 1020.2 3.1 E 6.4 ENE 0.0 652.9
09:45 32.1 47.9 1020.2 2.3 ESE 7.1 SSW 0.0 661.5
09:50 32.2 47.4 1020.2 5.8 ESE 12.4 SE 0.0 669.8
09:55 32.1 48.0 1020.1 2.7 S 7.4 SW 0.0 677.2
10:00 32.3 47.8 1020.1 6.3 SSE 11.3 SSE 0.0 684.9
10:05 32.4 47.4 1020.1 5.2 SE 12.7 SE 0.0 692.1
10:10 32.6 47.0 1020.1 6.6 SE 11.3 S 0.0 699.8
10:15 32.4 47.4 1020.0 6.0 S 13.4 SSW 0.0 706.7
10:20 32.5 47.2 1020.0 8.1 S 12.7 SSE 0.0 712.1
10:25 32.6 47.3 1020.0 6.1 SE 12.4 SSE 0.0 717.4
10:30 32.9 46.4 1019.9 8.6 SE 14.8 E 0.0 724.5
10:35 33.0 45.9 1019.9 7.7 SE 18.4 SE 0.0 730.7
10:40 33.4 45.5 1019.9 8.1 SE 15.2 SSE 0.0 734.7
10:45 33.5 45.8 1019.8 5.9 E 12.0 ESE 0.0 734.2
10:50 33.7 45.5 1019.8 8.8 SSE 16.6 ESE 0.0 739.7
10:55 34.0 44.8 1019.8 8.4 ESE 14.5 SE 0.0 743.1
11:00 33.6 45.6 1019.7 9.4 ESE 15.9 SE 0.0 746.1
11:05 33.6 46.0 1019.6 8.3 SE 14.8 SE 0.0 749.4
11:10 33.9 45.0 1019.6 11.8 SSE 19.1 SE 0.0 753.3
11:15 33.7 45.2 1019.6 7.3 S 14.5 S 0.0 757.8
11:20 34.1 43.7 1019.6 8.7 SSE 14.5 S 0.0 760.1
11:25 34.2 42.8 1019.5 7.2 SSW 16.6 SW 0.0 755.2
11:30 34.6 42.1 1019.5 6.8 S 20.8 SE 0.0 758.9
11:35 34.6 42.8 1019.4 6.7 S 13.4 S 0.0 761.5
11:40 34.9 44.2 1019.4 7.5 S 17.3 SSE 0.0 759.1
11:45 34.9 45.7 1019.3 9.6 SSE 20.5 S 0.0 762.9
11:50 34.4 47.9 1019.3 11.1 SSE 20.8 S 0.0 759.5
11:55 33.9 48.8 1019.3 10.8 SE 20.1 SSE 0.0 758.0
12:00 34.1 48.9 1019.3 11.6 SE 22.6 SE 0.0 756.4
12:05 34.2 49.1 1019.2 10.3 SE 18.0 SE 0.0 754.7
12:10 34.0 48.6 1019.2 12.3 SE 20.8 ESE 0.0 759.5
12:15 34.0 49.0 1019.2 14.1 SE 24.0 SE 0.0 755.4
12:20 33.9 49.6 1019.2 13.6 SE 22.2 ESE 0.0 754.0
12:25 34.0 49.3 1019.1 10.2 SSE 22.2 SE 0.0 753.6
12:30 34.0 48.6 1019.1 10.5 SSE 20.5 SSE 0.0 749.7
Máxima 34.9 89.0 1021.3 14.1 SE 24.0 SE 0.0 762.9
Mínima 19.6 42.1 1019.1
Total 0.0